Time,TemperatureF,DewpointF,PressureIn,WindDirection,WindDirectionDegrees,WindSpeedMPH,WindSpeedGustMPH,Humidity,HourlyPrecipIn,Conditions,Clouds,dailyrainin,SoftwareType,DateUTC
2015-05-05 00:01:00,67.0,51.0,-100.00,SSE,157,2.0,5.0,57,-99.99,,,-99.99,,2015-05-05 05:01:00,
2015-05-05 00:32:00,65.0,51.0,-100.00,SSE,166,2.0,4.0,61,-99.99,,,-99.99,,2015-05-05 05:32:00,
2015-05-05 00:42:00,65.0,51.0,-100.00,SSE,166,2.0,4.0,61,-99.99,,,-99.99,,2015-05-05 05:42:00,
2015-05-05 00:52:00,65.0,51.0,-100.00,SSE,166,2.0,4.0,61,-99.99,,,-99.99,,2015-05-05 05:52:00,
2015-05-05 01:02:00,65.0,51.0,-100.00,SSE,166,2.0,4.0,61,-99.99,,,-99.99,,2015-05-05 06:02:00,
2015-05-05 01:32:00,63.0,52.0,-100.00,SE,141,1.0,4.0,68,-99.99,,,-99.99,,2015-05-05 06:32:00,
2015-05-05 01:42:00,63.0,52.0,-100.00,SE,141,1.0,4.0,68,-99.99,,,-99.99,,2015-05-05 06:42:00,
2015-05-05 01:52:00,63.0,52.0,-100.00,SE,141,1.0,4.0,68,-99.99,,,-99.99,,2015-05-05 06:52:00,
2015-05-05 02:01:00,63.0,52.0,-100.00,SE,141,1.0,4.0,68,-99.99,,,-99.99,,2015-05-05 07:01:00,
2015-05-05 02:31:00,62.0,54.0,-100.00,SE,140,1.0,4.0,74,-99.99,,,-99.99,,2015-05-05 07:31:00,
2015-05-05 02:42:00,62.0,54.0,-100.00,SE,140,1.0,4.0,74,-99.99,,,-99.99,,2015-05-05 07:42:00,
2015-05-05 02:51:00,62.0,54.0,-100.00,SE,140,1.0,4.0,74,-99.99,,,-99.99,,2015-05-05 07:51:00,
2015-05-05 03:01:00,62.0,54.0,-100.00,SE,140,1.0,4.0,74,-99.99,,,-99.99,,2015-05-05 08:01:00,
2015-05-05 03:31:00,62.0,55.0,-100.00,SSE,152,1.0,5.0,78,-99.99,,,-99.99,,2015-05-05 08:31:00,
2015-05-05 03:42:00,62.0,55.0,-100.00,SSE,152,1.0,5.0,78,-99.99,,,-99.99,,2015-05-05 08:42:00,
2015-05-05 03:51:00,62.0,55.0,-100.00,SSE,152,1.0,5.0,78,-99.99,,,-99.99,,2015-05-05 08:51:00,
2015-05-05 04:02:00,62.0,55.0,-100.00,SSE,152,1.0,5.0,78,-99.99,,,-99.99,,2015-05-05 09:02:00,
2015-05-05 04:31:00,61.0,55.0,-100.00,North,-9999,0.0,5.0,81,-99.99,,,-99.99,,2015-05-05 09:31:00,
2015-05-05 04:42:00,61.0,55.0,-100.00,North,-9999,0.0,5.0,81,-99.99,,,-99.99,,2015-05-05 09:42:00,
2015-05-05 04:52:00,61.0,55.0,-100.00,North,-9999,0.0,5.0,81,-99.99,,,-99.99,,2015-05-05 09:52:00,
2015-05-05 05:02:00,61.0,55.0,-100.00,North,-9999,0.0,5.0,81,-99.99,,,-99.99,,2015-05-05 10:02:00,
2015-05-05 05:32:00,59.0,58.0,-100.00,SE,144,1.0,3.0,96,-99.99,,,-99.99,,2015-05-05 10:32:00,
2015-05-05 05:42:00,59.0,58.0,-100.00,SE,144,1.0,3.0,96,-99.99,,,-99.99,,2015-05-05 10:42:00,
2015-05-05 05:52:00,59.0,58.0,-100.00,SE,144,1.0,3.0,96,-99.99,,,-99.99,,2015-05-05 10:52:00,
2015-05-05 06:02:00,59.0,58.0,-100.00,SE,144,1.0,3.0,96,-99.99,,,-99.99,,2015-05-05 11:02:00,
2015-05-05 06:32:00,59.0,58.0,-100.00,North,-9999,0.0,3.0,97,-99.99,,,-99.99,,2015-05-05 11:32:00,
2015-05-05 06:43:00,59.0,58.0,-100.00,North,-9999,0.0,3.0,97,-99.99,,,-99.99,,2015-05-05 11:43:00,
2015-05-05 06:52:00,59.0,58.0,-100.00,North,-9999,0.0,3.0,97,-99.99,,,-99.99,,2015-05-05 11:52:00,
2015-05-05 07:02:00,59.0,58.0,-100.00,North,-9999,0.0,3.0,97,-99.99,,,-99.99,,2015-05-05 12:02:00,
2015-05-05 07:32:00,60.0,60.0,-100.00,SE,137,1.0,4.0,99,-99.99,,,-99.99,,2015-05-05 12:32:00,
2015-05-05 07:42:00,60.0,60.0,-100.00,SE,137,1.0,4.0,99,-99.99,,,-99.99,,2015-05-05 12:42:00,
2015-05-05 07:52:00,60.0,60.0,-100.00,SE,137,1.0,4.0,99,-99.99,,,-99.99,,2015-05-05 12:52:00,
2015-05-05 08:01:00,60.0,60.0,-100.00,SE,137,1.0,4.0,99,-99.99,,,-99.99,,2015-05-05 13:01:00,
2015-05-05 08:32:00,67.0,57.0,-100.00,South,171,3.0,6.0,71,-99.99,,,-99.99,,2015-05-05 13:32:00,
2015-05-05 08:42:00,67.0,57.0,-100.00,South,171,3.0,6.0,71,-99.99,,,-99.99,,2015-05-05 13:42:00,
2015-05-05 08:52:00,67.0,57.0,-100.00,South,171,3.0,6.0,71,-99.99,,,-99.99,,2015-05-05 13:52:00,
2015-05-05 09:02:00,67.0,57.0,-100.00,South,171,3.0,6.0,71,-99.99,,,-99.99,,2015-05-05 14:02:00,
2015-05-05 09:31:00,74.0,61.0,-100.00,South,187,4.0,9.0,63,-99.99,,,-99.99,,2015-05-05 14:31:00,
2015-05-05 09:42:00,74.0,61.0,-100.00,South,187,4.0,9.0,63,-99.99,,,-99.99,,2015-05-05 14:42:00,
2015-05-05 09:52:00,74.0,61.0,-100.00,South,187,4.0,9.0,63,-99.99,,,-99.99,,2015-05-05 14:52:00,
2015-05-05 10:01:00,74.0,61.0,-100.00,South,187,4.0,9.0,63,-99.99,,,-99.99,,2015-05-05 15:01:00,
2015-05-05 10:32:00,78.0,61.0,-100.00,SW,232,4.0,11.0,55,-99.99,,,-99.99,,2015-05-05 15:32:00,
2015-05-05 10:42:00,78.0,61.0,-100.00,SW,232,4.0,11.0,55,-99.99,,,-99.99,,2015-05-05 15:42:00,
2015-05-05 10:52:00,78.0,61.0,-100.00,SW,232,4.0,11.0,55,-99.99,,,-99.99,,2015-05-05 15:52:00,
2015-05-05 11:02:00,78.0,61.0,-100.00,SW,232,4.0,11.0,55,-99.99,,,-99.99,,2015-05-05 16:02:00,
2015-05-05 11:32:00,81.0,62.0,-100.00,SW,221,4.0,10.0,53,-99.99,,,-99.99,,2015-05-05 16:32:00,
2015-05-05 11:42:00,81.0,62.0,-100.00,SW,221,4.0,10.0,53,-99.99,,,-99.99,,2015-05-05 16:42:00,
2015-05-05 11:52:00,81.0,62.0,-100.00,SW,221,4.0,10.0,53,-99.99,,,-99.99,,2015-05-05 16:52:00,
2015-05-05 12:02:00,81.0,62.0,-100.00,SW,221,4.0,10.0,53,-99.99,,,-99.99,,2015-05-05 17:02:00,
2015-05-05 12:33:00,83.0,62.0,-100.00,SSW,201,5.0,11.0,49,-99.99,,,-99.99,,2015-05-05 17:33:00,
2015-05-05 12:42:00,83.0,62.0,-100.00,SSW,201,5.0,11.0,49,-99.99,,,-99.99,,2015-05-05 17:42:00,
2015-05-05 12:52:00,83.0,62.0,-100.00,SSW,201,5.0,11.0,49,-99.99,,,-99.99,,2015-05-05 17:52:00,
2015-05-05 13:02:00,83.0,62.0,-100.00,SSW,201,5.0,11.0,49,-99.99,,,-99.99,,2015-05-05 18:02:00,
2015-05-05 13:32:00,86.0,60.0,-100.00,SW,214,5.0,11.0,41,-99.99,,,-99.99,,2015-05-05 18:32:00,
2015-05-05 13:43:00,86.0,60.0,-100.00,SW,214,5.0,11.0,41,-99.99,,,-99.99,,2015-05-05 18:43:00,
2015-05-05 13:52:00,86.0,60.0,-100.00,SW,214,5.0,11.0,41,-99.99,,,-99.99,,2015-05-05 18:52:00,
2015-05-05 14:03:00,86.0,60.0,-100.00,SW,214,5.0,11.0,41,-99.99,,,-99.99,,2015-05-05 19:03:00,
2015-05-05 14:32:00,87.0,55.0,-100.00,South,190,4.0,9.0,34,-99.99,,,-99.99,,2015-05-05 19:32:00,
2015-05-05 14:42:00,87.0,55.0,-100.00,South,190,4.0,9.0,34,-99.99,,,-99.99,,2015-05-05 19:42:00,
2015-05-05 14:52:00,87.0,55.0,-100.00,South,190,4.0,9.0,34,-99.99,,,-99.99,,2015-05-05 19:52:00,
2015-05-05 15:02:00,87.0,55.0,-100.00,South,190,4.0,9.0,34,-99.99,,,-99.99,,2015-05-05 20:02:00,
2015-05-05 15:32:00,88.0,55.0,-100.00,SSW,198,5.0,10.0,33,-99.99,,,-99.99,,2015-05-05 20:32:00,
2015-05-05 15:42:00,88.0,55.0,-100.00,SSW,198,5.0,10.0,33,-99.99,,,-99.99,,2015-05-05 20:42:00,
2015-05-05 15:52:00,88.0,55.0,-100.00,SSW,198,5.0,10.0,33,-99.99,,,-99.99,,2015-05-05 20:52:00,
2015-05-05 16:02:00,88.0,55.0,-100.00,SSW,198,5.0,10.0,33,-99.99,,,-99.99,,2015-05-05 21:02:00,
2015-05-05 16:32:00,86.0,54.0,-100.00,South,180,4.0,11.0,33,-99.99,,,-99.99,,2015-05-05 21:32:00,
2015-05-05 16:42:00,86.0,54.0,-100.00,South,180,4.0,11.0,33,-99.99,,,-99.99,,2015-05-05 21:42:00,
2015-05-05 16:52:00,86.0,54.0,-100.00,South,180,4.0,11.0,33,-99.99,,,-99.99,,2015-05-05 21:52:00,
2015-05-05 17:03:00,86.0,54.0,-100.00,South,180,4.0,11.0,33,-99.99,,,-99.99,,2015-05-05 22:03:00,
2015-05-05 17:31:00,85.0,54.0,-100.00,SSE,167,5.0,11.0,35,-99.99,,,-99.99,,2015-05-05 22:31:00,
2015-05-05 17:42:00,85.0,54.0,-100.00,SSE,167,5.0,11.0,35,-99.99,,,-99.99,,2015-05-05 22:42:00,
2015-05-05 17:52:00,85.0,54.0,-100.00,SSE,167,5.0,11.0,35,-99.99,,,-99.99,,2015-05-05 22:52:00,
2015-05-05 18:02:00,85.0,54.0,-100.00,SSE,167,5.0,11.0,35,-99.99,,,-99.99,,2015-05-05 23:02:00,
2015-05-05 18:32:00,84.0,53.0,-100.00,SSE,164,4.0,9.0,34,-99.99,,,-99.99,,2015-05-05 23:32:00,
2015-05-05 18:42:00,84.0,53.0,-100.00,SSE,164,4.0,9.0,34,-99.99,,,-99.99,,2015-05-05 23:42:00,
2015-05-05 18:52:00,84.0,53.0,-100.00,SSE,164,4.0,9.0,34,-99.99,,,-99.99,,2015-05-05 23:52:00,
2015-05-05 19:02:00,84.0,53.0,-100.00,SSE,164,4.0,9.0,34,-99.99,,,-99.99,,2015-05-06 00:02:00,
2015-05-05 19:32:00,79.0,53.0,-100.00,SSE,162,2.0,11.0,41,-99.99,,,-99.99,,2015-05-06 00:32:00,
2015-05-05 19:42:00,79.0,53.0,-100.00,SSE,162,2.0,11.0,41,-99.99,,,-99.99,,2015-05-06 00:42:00,
2015-05-05 19:52:00,79.0,53.0,-100.00,SSE,162,2.0,11.0,41,-99.99,,,-99.99,,2015-05-06 00:52:00,
2015-05-05 20:02:00,79.0,53.0,-100.00,SSE,162,2.0,11.0,41,-99.99,,,-99.99,,2015-05-06 01:02:00,
2015-05-05 20:31:00,74.0,52.0,-100.00,SE,141,1.0,6.0,47,-99.99,,,-99.99,,2015-05-06 01:31:00,
2015-05-05 20:42:00,74.0,52.0,-100.00,SE,141,1.0,6.0,47,-99.99,,,-99.99,,2015-05-06 01:42:00,
2015-05-05 20:51:00,74.0,52.0,-100.00,SE,141,1.0,6.0,47,-99.99,,,-99.99,,2015-05-06 01:51:00,
2015-05-05 21:02:00,74.0,52.0,-100.00,SE,141,1.0,6.0,47,-99.99,,,-99.99,,2015-05-06 02:02:00,
2015-05-05 23:32:00,62.0,57.0,-100.00,North,-9999,0.0,2.0,84,-99.99,,,-99.99,,2015-05-06 04:32:00,
2015-05-05 23:42:00,62.0,57.0,-100.00,North,-9999,0.0,2.0,84,-99.99,,,-99.99,,2015-05-06 04:42:00,